Wind_Speed
30 30 30 31 31 31 32 33 31 30 30 29 30 29 28 27 27 26 27 27 28 28 28 27 26 25 24 24 23 23 24 24 24 24 24 24 24 25 26 27 27 27 27 28
31 31 31 31 31 32 32 33 33 32 31 29 30 30 30 30 30 29 29 29 29 30 30 30 28 27 26 26 26 26 26 26 27 27 26 27 27 27 28 29 30 31 31 31
31 32 32 33 32 32 33 33 33 33 32 32 31 31 31 31 32 32 32 30 30 30 31 31 30 30 29 29 28 29 29 29 29 28 28 29 29 30 31 31 32 32 33 33
32 32 33 32 32 32 33 33 33 34 34 33 32 31 31 32 32 33 33 32 32 32 32 33 32 32 31 31 31 31 31 31 31 31 30 31 31 32 32 32 33 34 35 35
32 32 32 32 32 32 32 32 32 33 33 33 32 32 32 32 32 32 33 33 33 34 34 34 34 34 33 33 33 33 33 33 33 33 34 34 33 33 33 33 34 34 35 35
31 31 31 32 32 31 31 32 32 32 33 32 32 32 33 33 33 33 34 34 34 34 35 35 35 34 35 35 35 35 34 34 35 35 35 35 35 35 34 35 34 35 35 36
31 32 32 32 32 30 31 33 33 33 33 33 32 33 33 34 34 35 35 35 35 34 34 35 35 35 36 37 37 36 36 36 36 37 37 37 37 37 36 36 37 36 36 36
31 31 32 34 33 33 33 33 33 33 32 32 32 32 33 33 34 34 35 35 35 35 35 35 35 36 37 37 37 37 38 37 37 38 39 39 39 39 39 38 38 37 36 35
31 32 32 33 34 33 33 33 33 34 33 32 32 32 33 33 33 34 34 35 36 36 36 36 36 37 38 38 38 39 39 39 38 38 39 39 39 39 39 39 38 37 37 37
30 30 30 31 33 33 32 32 33 34 33 33 33 32 33 33 33 33 34 34 35 35 35 36 36 37 38 38 38 39 39 39 38 38 39 39 39 38 38 38 37 35 36 36
29 30 30 31 32 32 32 32 32 32 33 32 33 33 33 33 33 34 34 34 34 34 35 35 36 37 37 38 38 38 38 38 38 39 38 38 39 39 38 37 36 36 36 37
28 29 29 29 31 32 32 32 32 33 33 33 33 32 32 32 32 32 33 34 34 34 34 35 36 36 37 37 37 38 38 38 38 38 38 38 37 38 38 37 37 37 37 37
28 28 28 27 29 30 30 31 31 32 32 31 32 33 32 31 31 32 32 32 33 33 33 34 33 33 34 35 36 35 36 36 36 36 36 37 37 38 37 37 37 38 38 38
27 27 27 26 27 28 29 30 31 31 31 31 32 32 31 30 30 30 30 31 31 31 31 32 32 32 33 33 34 33 34 34 34 35 37 37 37 37 36 35 36 36 36 36
24 25 25 25 25 26 28 29 29 29 30 30 30 30 30 29 30 30 30 31 31 30 31 31 31 31 31 31 31 32 33 33 33 34 35 35 34 33 33 34 34 34 35 36
22 23 24 24 23 24 25 26 27 27 28 27 28 27 26 26 26 27 28 28 28 28 29 29 29 29 29 30 30 30 31 31 30 30 31 31 31 32 33 34 34 34 35 35
20 20 21 22 23 23 23 24 24 25 24 24 24 24 23 23 24 24 24 23 23 24 25 26 26 26 27 27 28 28 28 28 28 28 28 29 30 31 31 31 32 33 33 34
18 19 19 20 20 21 21 21 21 21 21 20 20 21 21 21 21 21 21 21 21 21 22 23 22 23 24 26 26 26 26 26 26 27 27 28 29 30 31 31 32 32 32 33
16 17 17 17 18 18 18 17 17 17 17 17 17 18 18 19 19 19 20 20 20 20 21 21 21 22 22 23 23 24 25 25 26 28 28 28 29 30 31 31 31 31 31 31
15 15 15 15 15 15 14 13 14 14 14 15 15 15 16 17 18 17 17 17 18 19 18 19 20 21 21 21 22 23 24 24 25 27 27 28 28 28 28 28 29 29 29 29
12 12 13 13 13 12 12 12 12 12 12 12 12 13 13 14 14 14 14 15 16 17 17 17 18 19 20 21 21 21 22 22 23 23 24 24 24 24 25 26 26 27 27 27
12 11 11 11 11 11 11 11 11 11 11 11 11 11 11 12 12 12 13 14 14 15 16 16 18 19 20 20 19 19 19 19 21 21 21 22 22 21 22 23 24 24 25 25
11 10 10 9 9 9 10 10 10 9 9 10 10 10 10 10 11 12 13 13 14 14 14 15 16 17 17 18 18 18 19 19 19 19 20 20 20 20 21 22 22 23 24 24
9 9 8 8 8 8 9 9 9 9 9 9 9 9 9 10 11 11 12 13 13 13 14 14 14 15 15 16 16 17 17 18 19 19 19 20 20 20 21 21 22 22 23 23
8 8 8 7 7 8 8 8 8 9 8 8 9 9 9 10 10 10 11 11 11 12 13 13 14 14 15 16 17 17 17 18 18 18 18 18 18 19 19 19 20 21 22 22
6 7 7 7 7 8 8 8 9 9 8 9 9 9 9 9 9 9 10 11 12 13 13 14 15 15 16 16 16 17 17 17 17 17 17 18 18 18 18 19 20 21 22 22
7 7 7 7 7 7 7 7 8 8 9 9 9 9 9 9 9 10 10 11 11 12 13 14 15 16 16 17 17 18 17 17 17 17 17 18 19 20 20 21 22 22 23 23
Wind_Direction
249 249 252 254 254 254 254 253 255 258 260 260 261 261 258 256 256 257 256 256 256 256 256 256 258 258 259 261 263 265 268 270 271 270 269 268 268 267 266 266 265 265 265 266
254 253 254 254 254 256 256 255 256 257 258 260 260 260 259 258 257 258 257 256 257 257 256 256 257 258 258 260 262 264 266 268 270 269 269 269 268 268 268 268 267 266 266 266
256 257 258 257 256 256 256 256 257 258 260 261 262 262 262 261 259 258 258 256 256 256 254 256 257 259 259 259 261 264 266 268 270 270 270 271 270 270 270 270 269 269 268 267
256 258 259 259 259 258 257 257 257 258 260 261 262 262 261 261 261 260 259 257 256 255 255 256 258 259 260 260 261 264 267 269 270 271 272 272 273 272 270 270 271 271 270 269
257 259 260 260 260 258 258 258 258 258 259 261 261 261 261 260 260 259 258 258 258 256 255 256 257 258 259 261 261 263 265 267 268 270 272 273 272 272 270 270 272 272 270 270
256 257 259 262 261 259 259 260 258 259 259 260 260 260 261 260 259 258 258 258 258 259 259 258 257 258 259 260 262 263 264 265 267 268 271 271 271 272 270 269 271 272 271 270
258 259 259 261 262 261 260 261 260 261 260 260 260 261 261 261 260 259 259 260 260 260 260 259 258 258 258 260 261 262 263 265 267 268 269 270 270 270 270 270 272 271 270 271
258 259 260 260 261 261 262 262 262 263 263 263 262 261 261 261 261 260 260 261 262 262 261 259 259 260 260 261 262 262 263 264 266 267 268 269 268 268 269 272 272 272 271 272
259 259 262 261 262 262 263 262 262 264 265 265 264 263 262 262 261 261 261 262 262 261 261 260 260 261 262 262 262 262 264 265 266 267 267 267 267 267 268 270 271 271 271 272
259 261 262 262 261 261 262 262 262 263 264 265 265 263 263 263 263 263 263 263 262 262 262 262 262 262 262 262 262 263 264 265 266 267 265 264 266 267 268 269 270 271 272 273
260 262 264 262 261 261 261 262 261 262 262 263 264 264 263 264 264 265 264 262 262 262 261 262 262 263 262 262 263 263 264 265 265 267 267 267 267 266 267 269 270 272 273 274
262 262 265 264 261 261 261 261 261 262 264 263 262 265 264 265 266 265 263 262 261 260 261 261 262 263 262 261 261 262 263 263 264 265 266 267 267 267 267 268 269 270 272 274
262 263 265 265 262 261 262 262 263 264 265 266 265 265 266 266 266 264 262 262 262 260 261 261 261 262 262 262 261 261 263 264 264 265 266 267 268 267 267 269 270 270 271 274
263 263 263 264 264 262 261 261 262 263 263 265 267 267 267 264 263 262 262 263 261 261 261 261 262 263 262 262 261 261 262 263 264 265 266 267 267 267 268 269 270 271 272 274
264 264 264 265 265 263 262 263 263 263 265 265 266 267 264 263 262 262 263 263 261 261 261 261 263 263 261 260 261 262 262 262 264 265 266 266 266 266 269 270 271 273 274 275
265 267 266 265 264 263 263 264 265 266 266 265 265 265 262 261 263 264 264 263 259 257 258 260 262 263 261 259 259 260 261 263 265 265 265 267 267 268 271 272 272 273 275 277
265 268 268 265 266 267 267 266 265 265 264 263 263 264 262 261 262 263 261 260 259 257 258 260 262 261 260 258 258 259 260 262 265 267 268 270 270 271 271 272 274 274 276 278
264 267 267 267 267 268 267 265 265 262 262 261 261 261 263 262 262 261 259 259 258 257 257 257 258 258 258 258 258 260 263 265 266 269 272 273 273 274 275 276 278 278 277 278
263 264 266 267 269 268 269 269 267 264 262 260 261 261 262 262 263 262 260 258 257 256 255 254 256 259 260 260 261 262 264 266 268 269 272 274 275 276 276 277 278 278 278 280
262 263 265 266 268 270 271 269 267 266 267 266 264 261 262 263 261 259 257 255 254 255 256 260 262 264 264 265 266 268 269 269 271 273 273 275 275 275 275 276 277 278 279 279
267 267 265 265 268 270 270 271 272 270 269 270 268 265 264 264 262 263 264 263 262 262 266 267 267 267 270 271 271 272 272 273 275 278 278 278 278 277 276 276 278 279 279 280
270 272 269 268 269 270 269 270 272 271 270 270 269 270 271 270 269 268 269 270 269 269 268 270 272 272 273 273 272 273 275 278 280 281 281 281 280 280 279 279 279 279 280 280
270 270 266 266 266 265 267 268 268 266 267 268 270 269 268 269 272 273 273 273 272 273 274 276 278 279 278 277 277 278 280 282 283 283 283 283 283 282 281 281 280 281 282 283
268 272 271 267 265 267 268 267 266 266 267 270 272 273 272 273 275 276 276 276 277 278 278 280 283 284 284 283 284 285 284 283 284 284 284 284 284 284 283 283 284 285 286 286
269 271 270 269 268 270 274 270 269 270 272 274 274 274 276 278 279 281 282 282 282 284 286 286 288 289 288 289 290 290 290 289 288 288 287 287 286 285 286 286 287 288 288 288
272 269 267 268 269 271 273 272 272 272 277 282 284 284 285 286 286 286 286 285 285 286 287 288 290 291 291 292 293 293 293 293 292 290 289 289 288 288 289 288 288 288 289 289
275 270 267 267 270 275 276 275 274 274 277 280 283 283 285 289 292 294 294 292 291 292 293 293 294 294 294 294 294 293 292 291 289 289 290 290 289 289 289 290 291 291 292 291
Height
5824 5825 5826 5828 5829 5830 5832 5834 5836 5838 5839 5840 5840 5841 5842 5843 5844 5845 5846 5846 5847 5848 5849 5850 5850 5851 5851 5852 5852 5851 5851 5851 5851 5851 5850 5850 5850 5850 5849 5849 5849 5849 5848 5848
5815 5816 5817 5818 5820 5822 5823 5824 5826 5828 5830 5831 5831 5832 5833 5834 5835 5836 5837 5838 5839 5839 5840 5841 5842 5843 5844 5844 5845 5844 5844 5844 5844 5843 5843 5843 5843 5842 5842 5842 5841 5841 5841 5840
5806 5807 5808 5809 5812 5813 5814 5815 5817 5818 5821 5821 5822 5823 5824 5825 5826 5827 5827 5828 5829 5830 5831 5833 5834 5835 5836 5836 5836 5836 5836 5836 5836 5836 5835 5835 5835 5834 5834 5833 5833 5832 5832 5832
5797 5798 5799 5803 5802 5803 5804 5805 5807 5808 5810 5811 5813 5814 5814 5815 5816 5817 5818 5819 5819 5820 5821 5823 5824 5825 5827 5827 5828 5828 5828 5828 5828 5828 5827 5827 5827 5826 5825 5825 5824 5823 5823 5823
5787 5788 5790 5792 5792 5794 5795 5796 5798 5799 5800 5802 5803 5804 5805 5805 5806 5807 5808 5809 5810 5810 5811 5812 5814 5815 5816 5817 5818 5819 5819 5819 5819 5819 5818 5818 5818 5817 5816 5816 5815 5813 5813 5813
5778 5779 5781 5783 5783 5784 5787 5786 5788 5789 5791 5792 5793 5795 5796 5796 5796 5797 5798 5799 5799 5800 5801 5802 5803 5804 5806 5807 5808 5809 5809 5809 5809 5809 5809 5809 5808 5808 5807 5806 5806 5805 5804 5804
5768 5769 5771 5773 5774 5776 5778 5778 5778 5779 5780 5782 5783 5785 5785 5785 5786 5787 5788 5788 5789 5790 5791 5792 5793 5794 5795 5796 5797 5798 5799 5799 5799 5799 5799 5799 5799 5798 5797 5796 5796 5795 5794 5794
5760 5761 5763 5762 5764 5766 5766 5767 5768 5769 5770 5771 5772 5773 5774 5774 5775 5776 5777 5778 5778 5779 5780 5781 5783 5784 5785 5785 5786 5787 5787 5788 5789 5789 5789 5788 5788 5788 5787 5786 5785 5784 5784 5784
5751 5753 5752 5753 5754 5755 5756 5757 5758 5759 5760 5761 5762 5762 5763 5764 5765 5765 5766 5767 5767 5768 5769 5771 5772 5773 5773 5774 5775 5775 5776 5777 5777 5777 5777 5777 5777 5777 5776 5775 5774 5774 5774 5774
5741 5742 5743 5743 5744 5745 5746 5747 5748 5749 5750 5751 5751 5752 5752 5753 5753 5754 5754 5755 5756 5756 5758 5759 5760 5761 5762 5763 5763 5764 5765 5765 5765 5766 5766 5766 5766 5765 5765 5765 5765 5764 5764 5763
5731 5732 5733 5734 5734 5735 5736 5737 5738 5739 5739 5740 5740 5740 5741 5741 5742 5742 5743 5744 5744 5745 5746 5747 5748 5749 5750 5751 5751 5752 5753 5754 5754 5754 5754 5754 5755 5755 5755 5755 5754 5754 5754 5753
5722 5723 5724 5724 5724 5725 5726 5727 5728 5728 5729 5729 5730 5730 5730 5730 5730 5731 5732 5732 5733 5734 5735 5736 5737 5738 5739 5740 5740 5741 5741 5742 5742 5743 5743 5744 5744 5744 5743 5743 5743 5743 5742 5742
5713 5714 5715 5715 5715 5716 5716 5717 5717 5718 5718 5719 5719 5719 5719 5720 5720 5720 5720 5721 5722 5723 5724 5725 5726 5727 5727 5728 5729 5730 5730 5730 5731 5732 5732 5733 5733 5732 5732 5732 5732 5732 5731 5731
5705 5706 5706 5706 5707 5707 5707 5707 5708 5708 5708 5709 5709 5709 5709 5710 5710 5710 5710 5711 5712 5713 5714 5715 5716 5716 5717 5717 5718 5719 5719 5720 5720 5721 5721 5721 5722 5722 5721 5721 5721 5720 5720 5719
5697 5698 5698 5698 5698 5699 5699 5699 5699 5699 5699 5700 5700 5700 5699 5700 5700 5700 5700 5700 5701 5703 5704 5705 5706 5706 5707 5707 5708 5709 5709 5710 5710 5711 5711 5711 5711 5711 5711 5711 5710 5710 5709 5708
5690 5690 5690 5690 5691 5691 5691 5691 5691 5691 5691 5691 5691 5691 5691 5691 5691 5690 5690 5690 5691 5693 5694 5695 5697 5697 5698 5698 5699 5700 5700 5701 5701 5701 5701 5701 5701 5701 5701 5701 5700 5699 5698 5697
5683 5683 5683 5683 5684 5684 5683 5683 5683 5683 5683 5683 5683 5683 5683 5683 5683 5683 5683 5683 5684 5685 5686 5687 5688 5689 5689 5690 5691 5692 5692 5692 5693 5693 5692 5692 5691 5691 5691 5690 5689 5689 5688 5687
5677 5677 5677 5677 5677 5677 5677 5676 5676 5676 5676 5676 5676 5677 5677 5676 5676 5676 5677 5677 5677 5678 5679 5680 5681 5682 5682 5683 5683 5684 5684 5684 5684 5684 5684 5683 5682 5682 5682 5681 5680 5679 5678 5677
5672 5672 5672 5672 5672 5671 5671 5671 5670 5671 5671 5670 5671 5671 5671 5671 5671 5671 5671 5671 5672 5673 5673 5674 5674 5675 5675 5676 5676 5676 5676 5676 5676 5676 5675 5674 5674 5673 5673 5672 5671 5670 5669 5667
5667 5667 5667 5667 5667 5666 5666 5666 5666 5666 5666 5665 5666 5666 5666 5666 5666 5666 5666 5667 5667 5667 5667 5668 5668 5668 5668 5669 5669 5669 5668 5668 5668 5667 5667 5666 5665 5664 5663 5663 5662 5661 5660 5658
5663 5662 5662 5663 5662 5662 5662 5662 5662 5662 5662 5662 5662 5662 5662 5661 5661 5661 5662 5662 5662 5662 5662 5662 5662 5662 5662 5662 5662 5662 5661 5661 5660 5659 5658 5657 5656 5655 5655 5654 5653 5652 5651 5649
5659 5659 5659 5659 5659 5659 5659 5659 5658 5658 5658 5658 5658 5658 5658 5657 5657 5658 5658 5658 5658 5657 5657 5657 5657 5657 5656 5656 5655 5655 5654 5654 5653 5652 5651 5650 5649 5648 5647 5646 5645 5644 5643 5641
5655 5655 5655 5655 5655 5655 5655 5655 5655 5655 5655 5655 5654 5654 5654 5654 5654 5654 5654 5654 5654 5653 5653 5652 5652 5651 5651 5650 5649 5648 5648 5647 5646 5645 5644 5643 5642 5641 5640 5639 5638 5637 5635 5634
5653 5652 5652 5652 5652 5652 5652 5652 5652 5652 5652 5652 5651 5651 5651 5651 5651 5650 5650 5649 5649 5649 5648 5647 5647 5646 5645 5645 5643 5643 5642 5641 5640 5639 5638 5637 5635 5634 5633 5632 5631 5629 5628 5626
5650 5650 5649 5649 5649 5649 5649 5649 5649 5649 5648 5648 5648 5648 5648 5647 5647 5647 5646 5645 5645 5644 5644 5643 5642 5641 5641 5639 5638 5637 5636 5635 5634 5632 5631 5630 5629 5628 5626 5625 5624 5622 5620 5619
5647 5647 5647 5647 5646 5646 5646 5646 5646 5645 5645 5645 5645 5645 5645 5644 5643 5643 5642 5642 5641 5640 5640 5639 5638 5637 5636 5634 5633 5631 5630 5629 5627 5626 5625 5624 5622 5621 5620 5618 5617 5615 5613 5611
5645 5645 5644 5644 5644 5644 5643 5643 5643 5643 5643 5642 5642 5642 5642 5641 5640 5640 5639 5638 5637 5636 5635 5634 5633 5632 5630 5629 5627 5626 5624 5623 5622 5620 5619 5618 5616 5615 5613 5611 5609 5607 5605 5603